H1 CPF 2 NER 2024 2 14 9 045 01 glonass127 H2 1106403 9127 37869 2024 2 14 0 0 0 2024 2 17 23 45 0 900 1 1 0 0 0 1 H9 10 0 60354 0.00000 0 -20341890.990 13442403.626 -7371388.497 10 0 60354 900.00000 0 -19442173.123 12787187.553 -10343390.425 10 0 60354 1800.00000 0 -18353563.690 11806338.359 -13113451.073 10 0 60354 2700.00000 0 -17135642.782 10493753.745 -15627333.125 10 0 60354 3600.00000 0 -15849972.599 8856406.204 -17835774.985 10 0 60354 4500.00000 0 -14557437.565 6914324.479 -19695480.970 10 0 60354 5400.00000 0 -13315629.019 4700022.723 -21169992.556 10 0 60354 6300.00000 0 -12176387.369 2257399.451 -22230421.564 10 0 60354 7200.00000 0 -11183607.883 -359848.352 -22856029.288 10 0 60354 8100.00000 0 -10371404.666 -3090229.448 -23034639.171 10 0 60354 9000.00000 0 -9762711.625 -5866796.100 -22762874.462 10 0 60354 9900.00000 0 -9368379.891 -8619716.112 -22046216.278 10 0 60354 10800.00000 0 -9186809.320 -11278969.947 -20898881.609 10 0 60354 11700.00000 0 -9204128.256 -13777058.588 -19343524.808 10 0 60354 12600.00000 0 -9394911.791 -16051607.676 -17410769.953 10 0 60354 13500.00000 0 -9723405.442 -18047758.494 -15138585.160 10 0 60354 14400.00000 0 -10145199.469 -19720246.017 -12571513.103 10 0 60354 15300.00000 0 -10609279.956 -21035078.184 -9759775.010 10 0 60354 16200.00000 0 -11060367.079 -21970748.164 -6758267.730 10 0 60354 17100.00000 0 -11441439.360 -22518931.650 -3625475.374 10 0 60354 18000.00000 0 -11696335.535 -22684643.387 -422318.383 10 0 60354 18900.00000 0 -11772323.276 -22485850.098 2789036.361 10 0 60354 19800.00000 0 -11622526.336 -21952559.767 5946380.661 10 0 60354 20700.00000 0 -11208108.521 -21125428.842 8988661.868 10 0 60354 21600.00000 0 -10500123.914 -20053948.474 11857148.956 10 0 60354 22500.00000 0 -9480957.308 -18794287.647 14496546.495 10 0 60354 23400.00000 0 -8145296.244 -17406884.308 16856036.798 10 0 60354 24300.00000 0 -6500595.579 -15953885.056 18890232.424 10 0 60354 25200.00000 0 -4567016.264 -14496539.129 20560023.232 10 0 60354 26100.00000 0 -2376841.295 -13092653.495 21833304.280 10 0 60354 27000.00000 0 26607.375 -11794212.666 22685573.056 10 0 60354 27900.00000 0 2590507.383 -10645259.674 23100386.667 10 0 60354 28800.00000 0 5254468.447 -9680123.931 23069671.728 10 0 60354 29700.00000 0 7952781.698 -8922067.646 22593881.862 10 0 60354 30600.00000 0 10616896.173 -8382405.778 21681999.752 10 0 60354 31500.00000 0 13178023.449 -8060135.702 20351382.949 10 0 60354 32400.00000 0 15569765.913 -7942092.459 18627454.786 10 0 60354 33300.00000 0 17730662.533 -8003624.366 16543244.114 10 0 60354 34200.00000 0 19606548.431 -8209762.720 14138780.030 10 0 60354 35100.00000 0 21152631.216 -8516838.900 11460350.373 10 0 60354 36000.00000 0 22335197.573 -8874483.450 8559635.380 10 0 60354 36900.00000 0 23132877.795 -9227925.154 5492730.674 10 0 60354 37800.00000 0 23537413.558 -9520494.778 2319076.418 10 0 60354 38700.00000 0 23553894.269 -9696228.440 -899688.037 10 0 60354 39600.00000 0 23200449.403 -9702460.206 -4100922.355 10 0 60354 40500.00000 0 22507407.149 -9492292.776 -7222212.745 10 0 60354 41400.00000 0 21515952.644 -9026839.201 -10202603.973 10 0 60354 42300.00000 0 20276340.845 -8277137.519 -12983810.111 10 0 60354 43200.00000 0 18845738.850 -7225653.495 -15511378.278 10 0 60354 44100.00000 0 17285788.933 -5867303.994 -17735780.193 10 0 60354 45000.00000 0 15659996.318 -4209954.040 -19613407.649 10 0 60354 45900.00000 0 14031053.679 -2274363.358 -21107450.044 10 0 60354 46800.00000 0 12458217.374 -93582.199 -22188634.733 10 0 60354 47700.00000 0 10994848.368 2288179.654 -22835814.016 10 0 60354 48600.00000 0 9686223.481 4817163.722 -23036386.195 10 0 60354 49500.00000 0 8567710.682 7432085.659 -22786541.940 10 0 60354 50400.00000 0 7663386.036 10066484.181 -22091331.195 10 0 60354 51300.00000 0 6985150.366 12651296.256 -20964549.948 10 0 60354 52200.00000 0 6532381.688 15117549.106 -19428450.220 10 0 60354 53100.00000 0 6292136.046 17399054.840 -17513280.479 10 0 60354 54000.00000 0 6239885.480 19434993.879 -15256667.357 10 0 60354 54900.00000 0 6340758.727 21172278.674 -12702852.804 10 0 60354 55800.00000 0 6551228.779 22567599.136 -9901803.800 10 0 60354 56700.00000 0 6821172.636 23589065.460 -6908214.120 10 0 60354 57600.00000 0 7096213.221 24217381.655 -3780419.575 10 0 60354 58500.00000 0 7320242.114 24446503.468 -579249.560 10 0 60354 59400.00000 0 7438014.969 24283756.457 2633161.535 10 0 60354 60300.00000 0 7397709.316 23749412.804 5794579.274 10 0 60354 61200.00000 0 7153337.034 22875747.967 8843867.011 10 0 60354 62100.00000 0 6666910.762 21705619.638 11722153.976 10 0 60354 63000.00000 0 5910274.562 20290630.652 14373952.281 10 0 60354 63900.00000 0 4866523.707 18688953.981 16748203.005 10 0 60354 64800.00000 0 3530955.783 16962910.875 18799233.440 10 0 60354 65700.00000 0 1911514.721 15176402.430 20487609.617 10 0 60354 66600.00000 0 28709.969 13392299.962 21780870.271 10 0 60354 67500.00000 0 -2084985.807 11669900.457 22654130.639 10 0 60354 68400.00000 0 -4386236.436 10062550.196 23090546.632 10 0 60354 69300.00000 0 -6822395.514 8615532.532 23081631.990 10 0 60354 70200.00000 0 -9333451.452 7364305.060 22627423.251 10 0 60354 71100.00000 0 -11854286.952 6333157.459 21736489.392 10 0 60354 72000.00000 0 -14317162.747 5534344.614 20425785.210 10 0 60354 72900.00000 0 -16654326.160 4967730.788 18720349.722 10 0 60354 73800.00000 0 -18800639.395 4620960.242 16652853.152 10 0 60354 74700.00000 0 -20696120.774 4470148.544 14262998.594 10 0 60354 75600.00000 0 -22288294.723 4481067.572 11596786.953 10 0 60354 76500.00000 0 -23534253.023 4610776.710 8705656.440 10 0 60354 77400.00000 0 -24402340.590 4809633.869 5645510.657 10 0 60354 78300.00000 0 -24873393.648 5023603.373 2475651.957 10 0 60354 79200.00000 0 -24941476.007 5196764.418 -742360.723 10 0 60354 80100.00000 0 -24614079.690 5273914.252 -3945907.986 10 0 60354 81000.00000 0 -23911778.529 5203155.050 -7072536.639 10 0 60354 81900.00000 0 -22867346.591 4938353.062 -10061192.073 10 0 60354 82800.00000 0 -21524376.450 4441363.086 -12853430.657 10 0 60354 83700.00000 0 -19935454.192 3683920.612 -15394586.357 10 0 60354 84600.00000 0 -18159967.651 2649117.749 -17634866.378 10 0 60354 85500.00000 0 -16261640.755 1332396.731 -19530351.838 10 0 60355 0.00000 0 -14305899.328 -257984.288 -21043881.394 10 0 60355 900.00000 0 -12357180.077 -2101036.543 -22145799.201 10 0 60355 1800.00000 0 -10476300.798 -4163673.308 -22814548.904 10 0 60355 2700.00000 0 -8718001.024 -6401867.152 -23037103.641 10 0 60355 3600.00000 0 -7128760.827 -8762281.303 -22809220.974 10 0 60355 4500.00000 0 -5744989.508 -11184306.709 -22135518.651 10 0 60355 5400.00000 0 -4591660.657 -13602417.975 -21029370.200 10 0 60355 6300.00000 0 -3681450.181 -15948747.759 -19512623.458 10 0 60355 7200.00000 0 -3014411.821 -18155770.033 -17615149.103 10 0 60355 8100.00000 0 -2578201.160 -20158978.353 -15374229.854 10 0 60355 9000.00000 0 -2348835.410 -21899445.957 -12833804.342 10 0 60355 9900.00000 0 -2291953.253 -23326160.151 -10043582.620 10 0 60355 10800.00000 0 -2364517.814 -24398033.743 -7058052.709 10 0 60355 11700.00000 0 -2516887.343 -25085510.651 -3935399.507 10 0 60355 12600.00000 0 -2695163.135 -25371700.542 -736358.851 10 0 60355 13500.00000 0 -2843713.246 -25252997.804 2476969.728 10 0 60355 14400.00000 0 -2907764.078 -24739162.032 5642327.802 10 0 60355 15300.00000 0 -2835949.991 -23852859.924 8698496.825 10 0 60355 16200.00000 0 -2582713.895 -22628690.729 11586468.258 10 0 60355 17100.00000 0 -2110458.866 -21111738.405 14250563.581 10 0 60355 18000.00000 0 -1391361.952 -19355712.636 16639484.293 10 0 60355 18900.00000 0 -408775.822 -17420756.912 18707273.888 10 0 60355 19800.00000 0 841838.808 -15371014.674 20414175.797 10 0 60355 20700.00000 0 2352487.765 -13272053.478 21727373.401 10 0 60355 21600.00000 0 4102742.266 -11188252.179 22621600.380 10 0 60355 22500.00000 0 6060358.326 -9180256.899 23079611.836 10 0 60355 23400.00000 0 8182392.233 -7302608.478 23092508.738 10 0 60355 24300.00000 0 10416767.976 -5601636.967 22659910.370 10 0 60355 25200.00000 0 12704234.471 -4113708.032 21789971.575 10 0 60355 26100.00000 0 14980634.731 -2863892.297 20499243.731 10 0 60355 27000.00000 0 17179396.322 -1865111.904 18812380.639 10 0 60355 27900.00000 0 19234143.002 -1117799.717 16761692.778 10 0 60355 28800.00000 0 21081321.715 -610086.148 14386555.879 10 0 60355 29700.00000 0 22662737.505 -318507.267 11732682.295 10 0 60355 30600.00000 0 23927891.578 -209206.459 8851266.325 10 0 60355 31500.00000 0 24836024.601 -239581.276 5798017.382 10 0 60355 32400.00000 0 25357778.436 -360308.088 2632097.563 10 0 60355 33300.00000 0 25476404.486 -517660.573 -585017.286 10 0 60355 34200.00000 0 25188464.983 -656024.773 -3790731.549 10 0 60355 35100.00000 0 24503994.628 -720503.995 -6922555.540 10 0 60355 36000.00000 0 23446112.605 -659502.011 -9919338.153 10 0 60355 36900.00000 0 22050098.577 -427172.842 -12722480.803 10 0 60355 37800.00000 0 20361969.535 14369.652 -15277106.846 10 0 60355 38700.00000 0 18436616.251 693179.488 -17533161.263 10 0 60355 39600.00000 0 16335577.586 1626026.548 -19446416.500 10 0 60355 40500.00000 0 14124546.986 2817429.756 -20979362.437 10 0 60355 41400.00000 0 11870717.442 4259219.410 -22101960.913 10 0 60355 42300.00000 0 9640078.396 5930649.476 -22792248.347 10 0 60355 43200.00000 0 7494780.152 7799056.601 -23036773.498 10 0 60355 44100.00000 0 5490678.288 9821038.704 -22830861.229 10 0 60355 45000.00000 0 3675162.479 11944103.211 -22178697.099 10 0 60355 45900.00000 0 2085361.421 14108714.668 -21093231.726 10 0 60355 46800.00000 0 746798.842 16250654.174 -19595907.870 10 0 60355 47700.00000 0 -327444.294 18303589.809 -17716217.064 10 0 60355 48600.00000 0 -1137028.521 20201748.419 -15491096.327 10 0 60355 49500.00000 0 -1694106.088 21882575.287 -12964178.788 10 0 60355 50400.00000 0 -2022536.857 23289269.214 -10184915.041 10 0 60355 51300.00000 0 -2156606.906 24373086.522 -7207584.527 10 0 60355 52200.00000 0 -2139307.770 25095318.083 -4090218.202 10 0 60355 53100.00000 0 -2020252.484 25428857.853 -893455.184 10 0 60355 54000.00000 0 -1853319.312 25359299.427 2320643.062 10 0 60355 54900.00000 0 -1694124.647 24885517.284 5489797.263 10 0 60355 55800.00000 0 -1597432.867 24019711.356 8552709.989 10 0 60355 56700.00000 0 -1614612.459 22786915.908 11450237.744 10 0 60355 57600.00000 0 -1791244.887 21223995.761 14126513.940 10 0 60355 58500.00000 0 -2164985.381 19378173.644 16530002.781 10 0 60355 59400.00000 0 -2763763.751 17305151.052 18614465.946 10 0 60355 60300.00000 0 -3604398.818 15066900.885 20339825.954 10 0 60355 61200.00000 0 -4691682.869 12729222.685 21672912.213 10 0 60355 62100.00000 0 -6017973.376 10359160.154 22588077.902 10 0 60355 63000.00000 0 -7563308.749 8022385.486 23067678.042 10 0 60355 63900.00000 0 -9296043.976 5780656.037 23102401.177 10 0 60355 64800.00000 0 -11173981.298 3689445.594 22691449.280 10 0 60355 65700.00000 0 -13145951.364 1795845.573 21842562.551 10 0 60355 66600.00000 0 -15153782.195 136820.813 20571887.967 10 0 60355 67500.00000 0 -17134577.534 -1262109.227 18903692.651 10 0 60355 68400.00000 0 -19023213.227 -2387709.808 16869925.400 10 0 60355 69300.00000 0 -20754950.763 -3239355.624 14509632.208 10 0 60355 70200.00000 0 -22268061.353 -3828826.388 11868234.138 10 0 60355 71100.00000 0 -23506352.472 -4179580.206 8996678.552 10 0 60355 72000.00000 0 -24421491.463 -4325533.257 5950477.455 10 0 60355 72900.00000 0 -24975028.063 -4309395.084 2788649.374 10 0 60355 73800.00000 0 -25140029.130 -4180627.955 -427416.256 10 0 60355 74700.00000 0 -24902254.130 -3993115.300 -3635150.875 10 0 60355 75600.00000 0 -24260818.715 -3802637.585 -6772031.474 10 0 60355 76500.00000 0 -23228315.001 -3664263.112 -9776813.486 10 0 60355 77400.00000 0 -21830380.228 -3629765.936 -12590746.215 10 0 60355 78300.00000 0 -20104729.274 -3745182.792 -15158745.026 10 0 60355 79200.00000 0 -18099689.803 -4048615.663 -17430494.978 10 0 60355 80100.00000 0 -15872300.735 -4568376.524 -19361461.774 10 0 60355 81000.00000 0 -13486053.968 -5321556.254 -20913787.837 10 0 60355 81900.00000 0 -11008375.077 -6313081.385 -22057053.858 10 0 60355 82800.00000 0 -8507950.263 -7535301.145 -22768889.176 10 0 60355 83700.00000 0 -6052013.546 -8968123.977 -23035417.866 10 0 60355 84600.00000 0 -3703709.794 -10579698.702 -22851531.202 10 0 60355 85500.00000 0 -1519645.708 -12327611.631 -22220981.136 10 0 60356 0.00000 0 452267.500 -14160548.208 -21156293.626 10 0 60356 900.00000 0 2174590.223 -16020348.882 -19678503.913 10 0 60356 1800.00000 0 3621673.129 -17844368.426 -17816721.912 10 0 60356 2700.00000 0 4780468.436 -19568040.818 -15607536.176 10 0 60356 3600.00000 0 5650799.803 -21127537.694 -13094271.412 10 0 60356 4500.00000 0 6245084.059 -22462408.221 -10326115.758 10 0 60356 5400.00000 0 6587520.267 -23518088.582 -7357137.082 10 0 60356 6300.00000 0 6712784.384 -24248175.673 -4245209.438 10 0 60356 7200.00000 0 6664288.469 -24616370.321 -1050872.389 10 0 60356 8100.00000 0 6492081.281 -24598010.021 2163853.357 10 0 60356 9000.00000 0 6250481.506 -24181129.076 5336670.169 10 0 60356 9900.00000 0 5995545.215 -23367004.226 8406204.012 10 0 60356 10800.00000 0 5782475.038 -22170165.611 11313178.466 10 0 60356 11700.00000 0 5663079.986 -20617875.043 14001540.641 10 0 60356 12600.00000 0 5683391.757 -18749095.355 16419518.937 10 0 60356 13500.00000 0 5881536.021 -16612995.054 18520594.401 10 0 60356 14400.00000 0 6285946.063 -14267050.823 20264369.514 10 0 60356 15300.00000 0 6913991.715 -11774826.144 21617320.242 10 0 60356 16200.00000 0 7771079.342 -9203516.646 22553419.469 10 0 60356 17100.00000 0 8850259.611 -6621361.548 23054622.010 10 0 60356 18000.00000 0 10132359.310 -4095025.534 23111203.559 10 0 60356 18900.00000 0 11586632.628 -1687056.215 22721948.073 10 0 60356 19800.00000 0 13171906.599 546480.696 21894180.160 10 0 60356 20700.00000 0 14838175.598 2558093.297 20643641.247 10 0 60356 21600.00000 0 16528581.623 4310597.903 18994210.438 10 0 60356 22500.00000 0 18181701.253 5778425.257 16977473.346 10 0 60356 23400.00000 0 19734047.061 6948444.578 14632144.566 10 0 60356 24300.00000 0 21122681.815 7820270.596 12003352.046 10 0 60356 25200.00000 0 22287838.026 8406039.486 9141794.211 10 0 60356 26100.00000 0 23175434.041 8729661.307 6102783.484 10 0 60356 27000.00000 0 23739380.840 8825578.303 2945192.486 10 0 60356 27900.00000 0 23943581.268 8737079.446 -269678.244 10 0 60356 28800.00000 0 23763535.157 8514240.789 -3479289.759 10 0 60356 29700.00000 0 23187479.647 8211577.879 -6621088.303 10 0 60356 30600.00000 0 22217013.093 7885509.587 -9633738.344 10 0 60356 31500.00000 0 20867172.650 7591741.782 -12458339.429 10 0 60356 32400.00000 0 19165959.011 7382683.578 -15039601.065 10 0 60356 33300.00000 0 17153325.657 7305008.271 -17326950.281 10 0 60356 34200.00000 0 14879673.404 7397465.393 -19275547.667 10 0 60356 35100.00000 0 12403912.762 7689039.807 -20847189.575 10 0 60356 36000.00000 0 9791175.615 8197538.861 -22011076.706 10 0 60356 36900.00000 0 7110273.261 8928670.016 -22744432.241 10 0 60356 37800.00000 0 4431008.897 9875649.889 -23032956.244 10 0 60356 38700.00000 0 1821458.887 11019362.353 -22871106.793 10 0 60356 39600.00000 0 -654661.587 12329059.257 -22262202.285 10 0 60356 40500.00000 0 -2940436.997 13763573.594 -21218343.448 10 0 60356 41400.00000 0 -4987891.353 15272992.666 -19760157.626 10 0 60356 42300.00000 0 -6759740.205 16800718.886 -17916371.777 10 0 60356 43200.00000 0 -8230682.609 18285829.334 -15723224.376 10 0 60356 44100.00000 0 -9388181.170 19665632.613 -13223729.722 10 0 60356 45000.00000 0 -10232700.478 20878313.551 -10466811.193 10 0 60356 45900.00000 0 -10777397.705 21865553.138 -7506322.518 10 0 60356 46800.00000 0 -11047282.432 22575012.837 -4399978.118 10 0 60356 47700.00000 0 -11077885.233 22962578.930 -1208215.139 10 0 60356 48600.00000 0 -10913494.894 22994273.480 2006989.358 10 0 60356 49500.00000 0 -10605041.770 22647753.260 5183322.281 10 0 60356 50400.00000 0 -10207718.843 21913335.853 8259335.819 10 0 60356 51300.00000 0 -9778442.104 20794512.290 11175623.339 10 0 60356 52200.00000 0 -9373257.496 19307927.102 13875948.224 10 0 60356 53100.00000 0 -9044802.913 17482828.651 16308305.450 10 0 60356 54000.00000 0 -8839930.472 15360014.044 18425897.606 10 0 60356 54900.00000 0 -8797586.913 12990313.191 20188009.056 10 0 60356 55800.00000 0 -8947038.805 10432674.668 21560763.990 10 0 60356 56700.00000 0 -9306514.856 7751931.570 22517756.357 10 0 60356 57600.00000 0 -9882320.526 5016337.774 23040541.787 10 0 60356 58500.00000 0 -10668461.090 2294973.841 23118983.774 10 0 60356 59400.00000 0 -11646788.987 -344873.358 22751448.492 10 0 60356 60300.00000 0 -12787670.348 -2840252.192 21944844.739 10 0 60356 61200.00000 0 -14051144.850 -5134906.905 20714507.683 10 0 60356 62100.00000 0 -15388533.204 -7181362.119 19083927.210 10 0 60356 63000.00000 0 -16744428.298 -8942646.578 17084324.057 10 0 60356 63900.00000 0 -18058990.040 -10393585.401 14754079.271 10 0 60356 64800.00000 0 -19270450.853 -11521607.001 12138025.129 10 0 60356 65700.00000 0 -20317729.247 -12327030.140 9286608.231 10 0 60356 66600.00000 0 -21143043.238 -12822817.467 6254938.278 10 0 60356 67500.00000 0 -21694414.158 -13033803.956 3101738.678 10 0 60356 68400.00000 0 -21927954.723 -12995430.565 -111782.312 10 0 60356 69300.00000 0 -21809843.006 -12752034.659 -3323118.770 10 0 60356 70200.00000 0 -21317896.255 -12354768.036 -6469689.562 10 0 60356 71100.00000 0 -20442674.699 -11859230.055 -9490071.468 10 0 60356 72000.00000 0 -19188064.973 -11322916.396 -12325217.412 10 0 60356 72900.00000 0 -17571314.911 -10802592.733 -14919633.965 10 0 60356 73800.00000 0 -15622514.989 -10351706.691 -17222492.763 10 0 60356 74700.00000 0 -13383545.802 -10017950.333 -19188651.525 10 0 60356 75600.00000 0 -10906534.269 -9841079.411 -20779562.305 10 0 60356 76500.00000 0 -8251882.835 -9851084.647 -21964047.006 10 0 60356 77400.00000 0 -5485954.753 -10066795.042 -22718923.235 10 0 60356 78300.00000 0 -2678513.503 -10494974.368 -23029466.987 10 0 60356 79200.00000 0 99974.868 -11129950.276 -22889702.471 10 0 60356 80100.00000 0 2781061.884 -11953792.117 -22302513.303 10 0 60356 81000.00000 0 5300943.973 -12937029.492 -21279573.397 10 0 60356 81900.00000 0 7602886.096 -14039879.981 -19841099.903 10 0 60356 82800.00000 0 9639339.990 -15213932.332 -18015434.462 10 0 60356 83700.00000 0 11373669.026 -16404211.917 -15838462.768 10 0 60356 84600.00000 0 12781409.059 -17551538.945 -13352885.782 10 0 60356 85500.00000 0 13851014.939 -18595077.758 -10607359.007 10 0 60357 0.00000 0 14584064.666 -19474967.876 -7655519.058 10 0 60357 900.00000 0 14994916.806 -20134925.110 -4554916.861 10 0 60357 1800.00000 0 15109838.784 -20524701.537 -1365884.081 10 0 60357 2700.00000 0 14965648.047 -20602302.663 1849649.128 10 0 60357 3600.00000 0 14607925.825 -20335868.322 5029357.301 10 0 60357 4500.00000 0 14088882.050 -19705140.436 8111721.682 10 0 60357 5400.00000 0 13464963.157 -18702457.969 11037207.954 10 0 60357 6300.00000 0 12794304.355 -17333239.560 13749397.914 10 0 60357 7200.00000 0 12134133.353 -15615935.637 16196054.850 10 0 60357 8100.00000 0 11538233.532 -13581453.533 18330104.201 10 0 60357 9000.00000 0 11054571.192 -11272080.367 20110513.087 10 0 60357 9900.00000 0 10723184.094 -8739948.493 21503054.361 10 0 60357 10800.00000 0 10574417.343 -6045106.232 22480943.057 10 0 60357 11700.00000 0 10627578.265 -3253271.975 23025335.267 10 0 60357 12600.00000 0 10890064.944 -433362.041 23125681.554 10 0 60357 13500.00000 0 11357004.075 2345108.611 22779929.260 10 0 60357 14400.00000 0 12011413.426 5014648.754 21994570.047 10 0 60357 15300.00000 0 12824883.289 7512331.151 20784531.251 10 0 60357 16200.00000 0 13758750.508 9782148.494 19172911.768 10 0 60357 17100.00000 0 14765718.664 11777089.647 17190565.520 10 0 60357 18000.00000 0 15791859.682 13460851.352 14875537.914 10 0 60357 18900.00000 0 16778916.000 14809114.644 12272363.334 10 0 60357 19800.00000 0 17666809.367 15810332.230 9431234.206 10 0 60357 20700.00000 0 18396252.768 16465992.583 6407055.059 10 0 60357 21600.00000 0 18911356.503 16790347.800 3258397.542 10 0 60357 22500.00000 0 19162118.426 16809614.433 46375.038 10 0 60357 23400.00000 0 19106691.949 16560678.837 -3166542.135 10 0 60357 24300.00000 0 18713333.660 16089359.829 -6317747.965 10 0 60357 25200.00000 0 17961945.082 15448300.953 -9345733.900 10 0 60357 26100.00000 0 16845139.697 14694581.161 -12191308.370 10 0 60357 27000.00000 0 15368786.314 13887145.658 -14798776.881 10 0 60357 27900.00000 0 13552002.197 13084167.120 -17117057.256 10 0 60357 28800.00000 0 11426593.138 12340451.191 -19100705.659 10 0 60357 29700.00000 0 9035961.804 11704998.686 -20710830.889 10 0 60357 30600.00000 0 6433528.869 11218830.420 -21915876.886 10 0 60357 31500.00000 0 3680732.947 10913169.253 -22692256.290 10 0 60357 32400.00000 0 844693.678 10808058.324 -23024821.420 10 0 60357 33300.00000 0 -2004362.983 10911475.260 -22907162.758 10 0 60357 34200.00000 0 -4795807.921 11218980.373 -22341728.976 10 0 60357 35100.00000 0 -7461325.817 11713913.333 -21339766.661 10 0 60357 36000.00000 0 -9937530.983 12368128.852 -19921081.868 10 0 60357 36900.00000 0 -12168371.897 13143238.430 -18113629.631 10 0 60357 37800.00000 0 -14107223.887 13992303.327 -15952941.201 10 0 60357 38700.00000 0 -15718583.365 14861904.667 -13481402.227 10 0 60357 39600.00000 0 -16979294.461 15694500.674 -10747398.126 10 0 60357 40500.00000 0 -17879259.467 16430969.196 -7804345.473 10 0 60357 41400.00000 0 -18421606.687 17013226.446 -4709630.282 10 0 60357 42300.00000 0 -18622312.548 17386810.339 -1523475.688 10 0 60357 43200.00000 0 -18509297.849 17503319.218 1692237.608 10 0 60357 44100.00000 0 -18121039.947 17322603.658 4875174.312 10 0 60357 45000.00000 0 -17504762.491 16814620.287 7963747.249 10 0 60357 45900.00000 0 -16714281.298 15960871.376 10898296.898 10 0 60357 46800.00000 0 -15807598.395 14755371.737 13622225.886 10 0 60357 47700.00000 0 -14844345.704 13205104.379 16083068.134 10 0 60357 48600.00000 0 -13883185.046 11329947.477 18233474.096 10 0 60357 49500.00000 0 -12979271.944 9162076.753 20032095.623 10 0 60357 50400.00000 0 -12181887.291 6744868.426 21444355.966 10 0 60357 51300.00000 0 -11532333.471 4131347.659 22443092.690 10 0 60357 52200.00000 0 -11062180.330 1382245.301 23009063.448 10 0 60357 53100.00000 0 -10791932.141 -1436258.973 23131306.622 10 0 60357 54000.00000 0 -10730169.658 -4255016.735 22807351.066 10 0 60357 54900.00000 0 -10873202.428 -7004514.979 22043271.224 10 0 60357 55800.00000 0 -11205246.152 -9617500.091 20853586.087 10 0 60357 56700.00000 0 -11699118.926 -12031516.249 19261002.599 10 0 60357 57600.00000 0 -12317429.317 -14191255.755 17296006.461 10 0 60357 58500.00000 0 -13014209.099 -16050625.542 14996305.634 10 0 60357 59400.00000 0 -13736925.105 -17574444.878 12406134.420 10 0 60357 60300.00000 0 -14428788.392 -18739703.383 9575428.575 10 0 60357 61200.00000 0 -15031265.861 -19536325.778 6558884.697 10 0 60357 62100.00000 0 -15486689.962 -19967409.562 3414919.742 10 0 60357 63000.00000 0 -15740856.818 -20048923.418 204549.153 10 0 60357 63900.00000 0 -15745502.286 -19808876.622 -3009795.509 10 0 60357 64800.00000 0 -15460549.486 -19285992.277 -6165486.545 10 0 60357 65700.00000 0 -14856029.932 -18527938.684 -9200933.259 10 0 60357 66600.00000 0 -13913593.500 -17589192.623 -12056802.728 10 0 60357 67500.00000 0 -12627539.525 -16528624.833 -14677202.421 10 0 60357 68400.00000 0 -11005321.573 -15406910.650 -17010799.173 10 0 60357 69300.00000 0 -9067501.063 -14283876.962 -19011850.115 10 0 60357 70200.00000 0 -6847148.823 -13215899.896 -20641122.924 10 0 60357 71100.00000 0 -4388717.765 -12253465.743 -21866685.207 10 0 60357 72000.00000 0 -1746433.021 -11439000.724 -22664545.723 10 0 60357 72900.00000 0 1017732.958 -10805063.375 -23019133.612 10 0 60357 73800.00000 0 3836414.814 -10372977.437 -22923605.554 10 0 60357 74700.00000 0 6639438.270 -10151963.716 -22379974.681 10 0 60357 75600.00000 0 9356524.030 -10138807.349 -21399059.171 10 0 60357 76500.00000 0 11919997.017 -10318073.478 -20000252.507 10 0 60357 77400.00000 0 14267386.414 -10662860.339 -18211121.249 10 0 60357 78300.00000 0 16343807.244 -11136055.473 -16066839.994 10 0 60357 79200.00000 0 18104024.105 -11692039.138 -13609476.529 10 0 60357 80100.00000 0 19514111.786 -12278759.983 -10887143.301 10 0 60357 81000.00000 0 20552645.303 -12840092.499 -7953033.934 10 0 60357 81900.00000 0 21211372.327 -13318374.307 -4864365.567 10 0 60357 82800.00000 0 21495343.274 -13657014.374 -1681249.452 10 0 60357 83700.00000 0 21422497.392 -13803061.127 1534486.823 10 0 60357 84600.00000 0 21022726.035 -13709621.970 4720501.729 10 0 60357 85500.00000 0 20336455.949 -13338032.921 7815143.077 99